This demonstration page uses our WeatherBlox Daily Observations layout. Learn more.

Left ArrowRight Arrow

39.08367, -84.50855

Hourly Observations for August 22, 2017

Temp ( °F °C ) Dew Point ( °F °C ) Humidity (%) Winds ( mph kmh ) Pressure ( in mb ) Visibility ( mi km ) Precip ( " mm )
12:53 am 00:53 Clear 75 23.9 73 22.8 94 94 N N/A 30.04 1017 10 16.0934 N/A
1:53 am 01:53 Clear 73 22.8 71 21.7 94 94 S 7 11 30.02 1017 10 16.0934 N/A
2:53 am 02:53 Clear 73 22.8 72 22.2 96 96 S 5 7 30.01 1016 10 16.0934 N/A
3:53 am 03:53 Clear 73 22.8 71 21.7 94 94 SSW 5 7 29.99 1016 10 16.0934 N/A
4:53 am 04:53 Clear 73 22.8 70 21.1 90 90 SSW 5 7 29.97 1015 10 16.0934 N/A
5:53 am 05:53 Clear 72 22.2 70 21.1 94 94 SW 6 9 29.97 1015 10 16.0934 N/A
6:53 am 06:53 Clear 73 22.8 69 20.6 87 87 SW 6 9 29.97 1015 10 16.0934 N/A
7:53 am 07:53 Sunny 74 23.3 71 21.7 91 91 SSW 6 9 29.97 1015 10 16.0934 N/A
8:53 am 08:53 Sunny 79 26.1 71 21.7 77 77 SW 13 20 29.96 1015 10 16.0934 N/A
9:53 am 09:53 Sunny 81 27.2 73 22.8 77 77 SSW 10 17 29.95 1014 10 16.0934 N/A
10:53 am 10:53 Partly Cloudy 83 28.3 75 23.9 77 77 SW 13 20 29.94 1014 10 16.0934 N/A
11:53 am 11:53 Mostly Cloudy 85 29.4 74 23.3 70 70 SW 13 20 29.94 1014 10 16.0934 N/A
12:23 pm 12:23 Mostly Cloudy with Thunderstorms 84 28.9 74 23.3 72 72 WSW 15 24 29.91 1013 10 16.0934 N/A
12:53 pm 12:53 Mostly Cloudy with Nearby Thunderstorms 79 26.1 74 23.3 85 85 W 14 22 29.93 1014 10 16.0934 0.01 0.254
1:34 pm 13:34 Sunny 83 28.3 74 23.3 74 74 WSW 9 15 29.91 1013 10 16.0934 N/A
1:53 pm 13:53 Mostly Cloudy with Rain 80 26.7 75 23.9 85 85 W 12 19 29.92 1013 4 6.43736 0.04 1.016
2:11 pm 14:11 Cloudy with Rain 77 25 76 24.4 96 96 W 7 11 29.91 1013 2.5 4.02335 0.16 4.064
2:23 pm 14:23 Cloudy with Light Rain 77 25 76 24.4 96 96 W 3 6 29.91 1013 5 8.0467 0.23 5.842
2:53 pm 14:53 Partly Cloudy 80 26.7 77 25 90 90 SW 3 6 29.91 1013 10 16.0934 0.23 5.842
3:53 pm 15:53 Mostly Cloudy 82 27.8 73 22.8 74 74 NW 5 7 29.89 1012 10 16.0934 N/A
4:53 pm 16:53 Mostly Sunny 80 26.7 71 21.7 74 74 W 13 20 29.89 1012 10 16.0934 N/A
5:53 pm 17:53 Cloudy 79 26.1 69 20.6 72 72 WSW 9 15 29.89 1012 10 16.0934 N/A
6:53 pm 18:53 Cloudy 78 25.6 69 20.6 74 74 WSW 6 9 29.89 1012 10 16.0934 N/A
7:53 pm 19:53 Sunny 76 24.4 70 21.1 82 82 WSW 6 9 29.9 1012 10 16.0934 N/A
8:53 pm 20:53 Clear 73 22.8 71 21.7 94 94 S 3 6 29.89 1012 10 16.0934 N/A
9:53 pm 21:53 Clear 71 21.7 70 21.1 96 96 N N/A 29.91 1013 10 16.0934 N/A
10:53 pm 22:53 Clear 70 21.1 69 20.6 97 97 N N/A 29.92 1013 10 16.0934 N/A
11:53 pm 23:53 Cloudy 72 22.2 70 21.1 94 94 NNW 3 6 29.93 1014 10 16.0934 N/A

Powered by AerisWeather